Sac River (Missouri), Route J (06919020)

StateMissouriLatestPoor (126 cfs)
RiverSac RiverRatingObservedEstimated
Updated2026-05-10 12:45 (1 hour ago)Flood - The river is flooding. Obstacles can be treacherous or deadly. The river should be avoided at this stage for casual trips and definitely for the inexperienced. Trips should be attempted only with protective gear and equipment.Flood(none)4595
Discharge126 cfs (median: 1310 cfs)High - The river is high and potentially dangerous, especially for the young and / or inexperienced. Normal stream obstacles are sometimes difficult to navigate. Extended distances can be attempted, but canoe travel may not be advisable.High(none)1528
Height6.05 feetGood - Conditions are ideal for a canoe or kayak. Boats typically will drag on fewer than one-quarter of riffles, if at all, and portages are unnecessary or rare. Normal float lengths can be attempted without a problem.Good(none)1211
TrendFalling (falling over 24 hours)Low - River is low but can still be floated. Some riffles are okay but most come with significant dragging and might need a portage. Float lengths should be reduced to accommodate low flow, dragging, and portages.Low(none)1050
USGSExternal icon USGS Site (External icon Duck Duck Go Maps)Poor - River is too low to float comfortably. Most or all riffles will drag or must be portaged and some obstacles (such as slick shelf rock) cause undue problems. Avoid the river at this stage for casual paddling trips.Poor(none)62

Trending Data

Plot Image

Trips for Sac River (Missouri), Route J (06919020)

DateStartEndDistanceConditionDischargeHeightFishingDetails

A total of 0 rows are displayed.

Condition Descriptions

Fishing Conditions

Fish Species

Notes

Classic Trip List

The classic River Trips application is still available for use. It is updated with the new system using a data retrofit. It is no longer maintained. The original River Trips application is no longer updated (as of 1 Dec 2016) but can be checked for errors or for the condition of the data before it was converted to the new system.

Gauge Data Table

ObservationHeightDischargeMaximum
Discharge
Minimum
Discharge
Mean
Discharge
P05P10P20P25P50
(Median)
P75P80P90P95
2026-05-10 12:45 6.05 126 5860 (2017) 74 (1981) 1720 93 118 208 352 1310 2970 3140 4020 5450
2026-05-10 11:45 6.08 132 5860 (2017) 74 (1981) 1720 93 118 208 352 1310 2970 3140 4020 5450
2026-05-10 10:45 6.13 141 5860 (2017) 74 (1981) 1720 93 118 208 352 1310 2970 3140 4020 5450
2026-05-10 09:45 6.20 155 5860 (2017) 74 (1981) 1720 93 118 208 352 1310 2970 3140 4020 5450
2026-05-10 08:45 6.30 176 5860 (2017) 74 (1981) 1720 93 118 208 352 1310 2970 3140 4020 5450
2026-05-10 07:45 6.43 205 5860 (2017) 74 (1981) 1720 93 118 208 352 1310 2970 3140 4020 5450
2026-05-10 06:45 6.62 249 5860 (2017) 74 (1981) 1720 93 118 208 352 1310 2970 3140 4020 5450
2026-05-10 05:45 6.85 309 5860 (2017) 74 (1981) 1720 93 118 208 352 1310 2970 3140 4020 5450
2026-05-10 04:45 7.14 381 5860 (2017) 74 (1981) 1720 93 118 208 352 1310 2970 3140 4020 5450
2026-05-10 03:45 7.49 473 5860 (2017) 74 (1981) 1720 93 118 208 352 1310 2970 3140 4020 5450
2026-05-10 02:45 7.93 599 5860 (2017) 74 (1981) 1720 93 118 208 352 1310 2970 3140 4020 5450
2026-05-10 01:45 8.46 768 5860 (2017) 74 (1981) 1720 93 118 208 352 1310 2970 3140 4020 5450
2026-05-10 00:45 9.10 992 5860 (2017) 74 (1981) 1720 93 118 208 352 1310 2970 3140 4020 5450
2026-05-09 23:45 9.83 1280 5860 (2017) 74 (1981) 1720 93 118 208 352 1310 2970 3140 4020 5450
2026-05-09 22:45 10.66 1640 6000 (2017) 69 (1981) 1890 94 104 196 481 1640 3150 3310 4190 4630
2026-05-09 21:45 11.61 2120 6000 (2017) 69 (1981) 1890 94 104 196 481 1640 3150 3310 4190 4630
2026-05-09 20:45 12.64 2710 6000 (2017) 69 (1981) 1890 94 104 196 481 1640 3150 3310 4190 4630
2026-05-09 19:45 13.61 3320 6000 (2017) 69 (1981) 1890 94 104 196 481 1640 3150 3310 4190 4630
2026-05-09 18:45 13.93 3540 6000 (2017) 69 (1981) 1890 94 104 196 481 1640 3150 3310 4190 4630
2026-05-09 17:45 11.98 2320 6000 (2017) 69 (1981) 1890 94 104 196 481 1640 3150 3310 4190 4630
2026-05-09 16:45 6.40 198 6000 (2017) 69 (1981) 1890 94 104 196 481 1640 3150 3310 4190 4630
2026-05-09 15:45 6.05 126 6000 (2017) 69 (1981) 1890 94 104 196 481 1640 3150 3310 4190 4630
2026-05-09 14:45 6.07 130 6000 (2017) 69 (1981) 1890 94 104 196 481 1640 3150 3310 4190 4630
2026-05-09 13:45 6.09 134 6000 (2017) 69 (1981) 1890 94 104 196 481 1640 3150 3310 4190 4630
2026-05-09 12:45 6.12 139 6000 (2017) 69 (1981) 1890 94 104 196 481 1640 3150 3310 4190 4630
2026-05-09 11:45 6.17 149 6000 (2017) 69 (1981) 1890 94 104 196 481 1640 3150 3310 4190 4630
2026-05-09 10:45 6.24 163 6000 (2017) 69 (1981) 1890 94 104 196 481 1640 3150 3310 4190 4630
2026-05-09 09:45 6.35 187 6000 (2017) 69 (1981) 1890 94 104 196 481 1640 3150 3310 4190 4630
2026-05-09 08:45 6.50 221 6000 (2017) 69 (1981) 1890 94 104 196 481 1640 3150 3310 4190 4630
2026-05-09 07:45 6.69 267 6000 (2017) 69 (1981) 1890 94 104 196 481 1640 3150 3310 4190 4630
2026-05-09 06:45 6.94 332 6000 (2017) 69 (1981) 1890 94 104 196 481 1640 3150 3310 4190 4630
2026-05-09 05:45 7.24 406 6000 (2017) 69 (1981) 1890 94 104 196 481 1640 3150 3310 4190 4630
2026-05-09 04:45 7.61 506 6000 (2017) 69 (1981) 1890 94 104 196 481 1640 3150 3310 4190 4630
2026-05-09 03:45 8.06 639 6000 (2017) 69 (1981) 1890 94 104 196 481 1640 3150 3310 4190 4630
2026-05-09 02:45 8.58 808 6000 (2017) 69 (1981) 1890 94 104 196 481 1640 3150 3310 4190 4630
2026-05-09 01:45 9.17 1020 6000 (2017) 69 (1981) 1890 94 104 196 481 1640 3150 3310 4190 4630
2026-05-09 00:45 9.82 1270 6000 (2017) 69 (1981) 1890 94 104 196 481 1640 3150 3310 4190 4630
2026-05-08 23:45 10.50 1570 6000 (2017) 69 (1981) 1890 94 104 196 481 1640 3150 3310 4190 4630
2026-05-08 22:45 11.04 1820 6570 (2009) 68 (1981) 2010 75 115 292 676 1710 2940 3180 4300 5640
2026-05-08 21:45 10.84 1720 6570 (2009) 68 (1981) 2010 75 115 292 676 1710 2940 3180 4300 5640
2026-05-08 20:45 8.78 877 6570 (2009) 68 (1981) 2010 75 115 292 676 1710 2940 3180 4300 5640
2026-05-08 19:45 6.05 126 6570 (2009) 68 (1981) 2010 75 115 292 676 1710 2940 3180 4300 5640
2026-05-08 18:45 6.05 126 6570 (2009) 68 (1981) 2010 75 115 292 676 1710 2940 3180 4300 5640
2026-05-08 17:45 6.07 130 6570 (2009) 68 (1981) 2010 75 115 292 676 1710 2940 3180 4300 5640
2026-05-08 16:45 6.08 132 6570 (2009) 68 (1981) 2010 75 115 292 676 1710 2940 3180 4300 5640
2026-05-08 15:45 6.10 136 6570 (2009) 68 (1981) 2010 75 115 292 676 1710 2940 3180 4300 5640
2026-05-08 14:45 6.14 143 6570 (2009) 68 (1981) 2010 75 115 292 676 1710 2940 3180 4300 5640
2026-05-08 13:45 6.20 155 6570 (2009) 68 (1981) 2010 75 115 292 676 1710 2940 3180 4300 5640
2026-05-08 12:45 6.29 174 6570 (2009) 68 (1981) 2010 75 115 292 676 1710 2940 3180 4300 5640
2026-05-08 11:45 6.40 198 6570 (2009) 68 (1981) 2010 75 115 292 676 1710 2940 3180 4300 5640
2026-05-08 10:45 6.56 235 6570 (2009) 68 (1981) 2010 75 115 292 676 1710 2940 3180 4300 5640
2026-05-08 09:45 6.77 287 6570 (2009) 68 (1981) 2010 75 115 292 676 1710 2940 3180 4300 5640
2026-05-08 08:45 7.03 354 6570 (2009) 68 (1981) 2010 75 115 292 676 1710 2940 3180 4300 5640
2026-05-08 07:45 7.37 440 6570 (2009) 68 (1981) 2010 75 115 292 676 1710 2940 3180 4300 5640
2026-05-08 06:45 7.78 555 6570 (2009) 68 (1981) 2010 75 115 292 676 1710 2940 3180 4300 5640
2026-05-08 05:45 8.29 712 6570 (2009) 68 (1981) 2010 75 115 292 676 1710 2940 3180 4300 5640
2026-05-08 04:45 8.89 916 6570 (2009) 68 (1981) 2010 75 115 292 676 1710 2940 3180 4300 5640
2026-05-08 03:45 9.60 1180 6570 (2009) 68 (1981) 2010 75 115 292 676 1710 2940 3180 4300 5640
2026-05-08 02:45 10.42 1530 6570 (2009) 68 (1981) 2010 75 115 292 676 1710 2940 3180 4300 5640
2026-05-08 01:45 11.37 1990 6570 (2009) 68 (1981) 2010 75 115 292 676 1710 2940 3180 4300 5640
2026-05-08 00:45 12.45 2600 6570 (2009) 68 (1981) 2010 75 115 292 676 1710 2940 3180 4300 5640
2026-05-07 23:45 13.61 3320 6570 (2009) 68 (1981) 2010 75 115 292 676 1710 2940 3180 4300 5640
2026-05-07 22:45 14.78 4130 6190 (2017) 69 (1981) 1980 77 95 287 397 1540 3280 3390 4310 5240
2026-05-07 21:45 15.67 4800 6190 (2017) 69 (1981) 1980 77 95 287 397 1540 3280 3390 4310 5240
2026-05-07 20:45 14.96 4260 6190 (2017) 69 (1981) 1980 77 95 287 397 1540 3280 3390 4310 5240
2026-05-07 19:45 13.49 3240 6190 (2017) 69 (1981) 1980 77 95 287 397 1540 3280 3390 4310 5240
2026-05-07 18:45 10.67 1650 6190 (2017) 69 (1981) 1980 77 95 287 397 1540 3280 3390 4310 5240
2026-05-07 17:45 6.07 130 6190 (2017) 69 (1981) 1980 77 95 287 397 1540 3280 3390 4310 5240
2026-05-07 16:45 6.08 132 6190 (2017) 69 (1981) 1980 77 95 287 397 1540 3280 3390 4310 5240
2026-05-07 15:45 6.10 136 6190 (2017) 69 (1981) 1980 77 95 287 397 1540 3280 3390 4310 5240
2026-05-07 14:45 6.13 141 6190 (2017) 69 (1981) 1980 77 95 287 397 1540 3280 3390 4310 5240
2026-05-07 13:45 6.17 149 6190 (2017) 69 (1981) 1980 77 95 287 397 1540 3280 3390 4310 5240
2026-05-07 12:45 6.24 163 6190 (2017) 69 (1981) 1980 77 95 287 397 1540 3280 3390 4310 5240
2026-05-07 11:45 6.33 182 6190 (2017) 69 (1981) 1980 77 95 287 397 1540 3280 3390 4310 5240
2026-05-07 10:45 6.47 214 6190 (2017) 69 (1981) 1980 77 95 287 397 1540 3280 3390 4310 5240
2026-05-07 09:45 6.64 254 6190 (2017) 69 (1981) 1980 77 95 287 397 1540 3280 3390 4310 5240
2026-05-07 08:45 6.87 315 6190 (2017) 69 (1981) 1980 77 95 287 397 1540 3280 3390 4310 5240
2026-05-07 07:45 7.16 386 6190 (2017) 69 (1981) 1980 77 95 287 397 1540 3280 3390 4310 5240
2026-05-07 06:45 7.52 481 6190 (2017) 69 (1981) 1980 77 95 287 397 1540 3280 3390 4310 5240
2026-05-07 05:45 7.96 609 6190 (2017) 69 (1981) 1980 77 95 287 397 1540 3280 3390 4310 5240
2026-05-07 04:45 8.49 778 6190 (2017) 69 (1981) 1980 77 95 287 397 1540 3280 3390 4310 5240
2026-05-07 03:45 9.12 1000 6190 (2017) 69 (1981) 1980 77 95 287 397 1540 3280 3390 4310 5240
2026-05-07 02:45 9.85 1290 6190 (2017) 69 (1981) 1980 77 95 287 397 1540 3280 3390 4310 5240
2026-05-07 01:45 10.68 1650 6190 (2017) 69 (1981) 1980 77 95 287 397 1540 3280 3390 4310 5240
2026-05-07 00:45 11.63 2130 6190 (2017) 69 (1981) 1980 77 95 287 397 1540 3280 3390 4310 5240
2026-05-06 23:45 12.66 2720 6190 (2017) 69 (1981) 1980 77 95 287 397 1540 3280 3390 4310 5240

A total of 86 rows are displayed for years 1974 through 2025.